Simultaneous Nadir Overpasses (SNOs) Predictions

Prediction of SNOs between NOAA-20 and LANDSAT-8 Satellite Orbit:

Table of predicted SNOs for the next 14.0 days since TLE Epoch: 8/1/2020
Index Date (NOAA-20) Time (NOAA-20) Lat,Lon (NOAA-20) SZA (NOAA-20 ) Date (LANDSAT-8) Time (LANDSAT-8) Lat,Lon (LANDSAT-8) SZA (LANDSAT-8 ) Distance(km) Time Diff (sec)
1 08/03/2020 15:06:04 -70.07, 129.80 127.21 08/03/2020 15:06:37 -70.06, 129.77 127.22 1.24 33
2 08/03/2020 15:56:48 69.94, -62.71 52.67 08/03/2020 15:56:04 69.96, -62.73 52.69 1.54 44
3 08/06/2020 06:32:22 70.48, 77.61 53.94 08/06/2020 06:33:33 70.37, 78.46 53.79 34.30 71
4 08/06/2020 07:22:57 -70.03,-114.37 126.53 08/06/2020 07:23:07 -70.04,-114.37 126.52 1.56 10
5 08/06/2020 08:13:41 69.91, 53.12 53.36 08/06/2020 08:12:34 69.93, 53.12 53.39 2.85 67
6 08/08/2020 22:49:09 70.13,-166.07 54.33 08/08/2020 22:50:07 70.12,-166.01 54.31 2.32 58
7 08/08/2020 23:39:50 -69.99, 1.46 125.81 08/08/2020 23:39:37 -70.02, 1.48 125.78 3.44 13
8 08/09/2020 00:30:23 69.29, 169.80 53.47 08/09/2020 00:29:14 69.35, 168.21 53.60 62.68 69
9 08/11/2020 15:06:01 70.09, -50.24 55.08 08/11/2020 15:06:36 70.09, -50.17 55.07 2.77 35
10 08/11/2020 15:56:42 -69.95, 117.29 125.07 08/11/2020 15:56:07 -69.94, 117.25 125.07 2.16 35
11 08/14/2020 06:32:22 -70.80,-102.89 123.38 08/14/2020 06:33:30 -70.67,-101.08 123.58 68.11 68
12 08/14/2020 07:22:53 70.01, 65.67 55.80 08/14/2020 07:23:07 70.01, 65.59 55.80 2.76 14
13 08/14/2020 08:13:35 -69.91,-126.88 124.29 08/14/2020 08:12:37 -69.91,-126.91 124.29 1.20 58
